WetterOnline ( https://www.wetteronline.ch )

Wetter aktuell Seehausen (Altmark)

Aktuelles Wetter: Seehausen (23m)

6-stündlich | Neueste Meldungen
Ortszeit Temperatur Wetter
Mo, 13.07. 8:00 13.7° C leicht bewölkt
Mo, 13.07. 2:00 9.3° C wolkig
So, 12.07. 20:00 18.1° C bedeckt
So, 12.07. 14:00 19.6° C leicht bewölkt
So, 12.07. 8:00 12.9° C wolkenlos
So, 12.07. 2:00 9.8° C wolkenlos
Sa, 11.07. 20:00 16.7° C wolkig
Sa, 11.07. 14:00 19.3° C bewölkt
Ortszeit Temperatur Wetter
Mo, 13.07. 9:00 16.4° C leicht bewölkt
Mo, 13.07. 8:50 16.4° C wolkig
Mo, 13.07. 8:40 16.0° C wolkig
Mo, 13.07. 8:30 15.1° C wolkig
Mo, 13.07. 8:20 15.1° C wolkig
Mo, 13.07. 8:10 14.8° C wolkig
Mo, 13.07. 8:00 13.7° C leicht bewölkt
Mo, 13.07. 7:30 12.9° C wolkig
Mo, 13.07. 7:00 11.4° C leicht bewölkt
Mo, 13.07. 6:30 9.1° C wolkig
Mo, 13.07. 6:00 8.9° C wolkig
Ortszeit Relative Feuchte Sichtweite
Mo, 13.07. 8:00 74% 65 km
Mo, 13.07. 2:00 90% 55 km
So, 12.07. 20:00 55% >70 km
So, 12.07. 14:00 50% 55 km
So, 12.07. 8:00 80% 55 km
So, 12.07. 2:00 89% 65 km
Sa, 11.07. 20:00 63% >70 km
Sa, 11.07. 14:00 49% 65 km
Ortszeit Relative Feuchte Sichtweite
Mo, 13.07. 9:00 66% 60 km
Mo, 13.07. 8:50 66% -
Mo, 13.07. 8:40 66% -
Mo, 13.07. 8:30 71% 55 km
Mo, 13.07. 8:20 71% -
Mo, 13.07. 8:10 73% -
Mo, 13.07. 8:00 74% 65 km
Mo, 13.07. 7:30 80% 45 km
Mo, 13.07. 7:00 85% 45 km
Mo, 13.07. 6:30 92% 40 km
Mo, 13.07. 6:00 91% 40 km
Ortszeit Niederschlagsmenge Niederschlagsart
Mo, 13.07. 8:00 0.0 l/m2 in 12 Std. -
Mo, 13.07. 2:00 0.0 l/m2 in 6 Std. -
So, 12.07. 20:00 0.0 l/m2 in 12 Std. -
So, 12.07. 14:00 0.0 l/m2 in 6 Std. -
So, 12.07. 8:00 0.0 l/m2 in 12 Std. -
So, 12.07. 2:00 0.0 l/m2 in 6 Std. -
Sa, 11.07. 20:00 0.1 l/m2 in 12 Std. Regen
Sa, 11.07. 14:00 0.0 l/m2 in 6 Std. -
Ortszeit Niederschlagsmenge Niederschlagsart
Mo, 13.07. 9:00 0.0 l/m2 in 1 Std. -
Mo, 13.07. 8:50 keine Meldung -
Mo, 13.07. 8:40 keine Meldung -
Mo, 13.07. 8:30 0.0 l/m2 in 1 Std. -
Mo, 13.07. 8:20 keine Meldung -
Mo, 13.07. 8:10 keine Meldung -
Mo, 13.07. 8:00 0.0 l/m2 in 1 Std. -
Mo, 13.07. 7:30 0.0 l/m2 in 1 Std. -
Mo, 13.07. 7:00 0.0 l/m2 in 1 Std. -
Mo, 13.07. 6:30 0.0 l/m2 in 1 Std. -
Mo, 13.07. 6:00 0.0 l/m2 in 1 Std. -
Ortszeit Stärke Spitze Richtung
km/h Bft. km/h Grad Sektor
Mo, 13.07. 8:00 4 1 7 300° NW
Mo, 13.07. 2:00 2 1 17 210° SW
So, 12.07. 20:00 9 2 31 320° NW
So, 12.07. 14:00 13 3 30 330° NW
So, 12.07. 8:00 9 2 15 280° W
So, 12.07. 2:00 9 2 24 270° W
Sa, 11.07. 20:00 18 3 43 240° SW
Sa, 11.07. 14:00 17 3 33 250° W
Ortszeit Stärke Spitze Richtung
km/h Bft. km/h Grad Sektor
Mo, 13.07. 9:00 4 1 7 10° N
Mo, 13.07. 8:50 4 1 - 10° N
Mo, 13.07. 8:40 4 1 - 10° N
Mo, 13.07. 8:30 4 1 4 10° N
Mo, 13.07. 8:20 4 1 - 10° N
Mo, 13.07. 8:10 4 1 - 360° N
Mo, 13.07. 8:00 4 1 7 300° NW
Mo, 13.07. 7:30 4 1 7 300° NW
Mo, 13.07. 7:00 2 1 4 290° W
Mo, 13.07. 6:30 0 0 4 - -
Mo, 13.07. 6:00 0 0 7 - -
Ortszeit Untergrenze Bedeckung Gattung
total tief tief mittel hoch
Mo, 13.07. 8:00 10500 m 8/8 0/8 - - -
Mo, 13.07. 2:00 10500 m 7/8 0/8 - - -
So, 12.07. 20:00 1800 m 8/8 8/8 - - -
So, 12.07. 14:00 1500 m 4/8 4/8 - - -
So, 12.07. 8:00 - 0/8 0/8 - - -
So, 12.07. 2:00 - 0/8 0/8 - - -
Sa, 11.07. 20:00 1800 m 4/8 6/8 - - -
Sa, 11.07. 14:00 1500 m 7/8 7/8 - - -
Ortszeit Bedeckungsgrad in Achtel und Wolkenuntergrenze
Mo, 13.07. 9:00 8(10500m)
Mo, 13.07. 8:50 8(10500m)
Mo, 13.07. 8:40 8(10500m)
Mo, 13.07. 8:30 8(10500m) 8(10500m)
Mo, 13.07. 8:20 8(10500m) 8(10500m)
Mo, 13.07. 8:10 8(10500m) 8(10500m)
Mo, 13.07. 8:00 8(10500m) 8(10500m)
Mo, 13.07. 7:30 8(9000m)
Mo, 13.07. 7:00 8(9000m)
Mo, 13.07. 6:30 8(9000m) 8(10500m)
Mo, 13.07. 6:00 8(10500m) 8(10500m)
Ortszeit Luftdruck NN (hPa) Tendenz (hPa in 3 Std.)
Mo, 13.07. 8:00 1026 - 0,2
Mo, 13.07. 2:00 1027 - 0,3
So, 12.07. 20:00 1027 - 0,1
So, 12.07. 14:00 1027 - 0,3
So, 12.07. 8:00 1027 + 1,4
So, 12.07. 2:00 1026 + 0,6
Sa, 11.07. 20:00 1024 + 0,8
Sa, 11.07. 14:00 1023 + 0,8
Ortszeit Luftdruck NN (hPa) Tendenz (hPa in 3 Std.)
Mo, 13.07. 9:00 1026 - 0,1
Mo, 13.07. 8:50 1026 keine Meldung
Mo, 13.07. 8:40 1026 keine Meldung
Mo, 13.07. 8:30 1026 - 0,2
Mo, 13.07. 8:20 1026 keine Meldung
Mo, 13.07. 8:10 1026 keine Meldung
Mo, 13.07. 8:00 1026 - 0,2
Mo, 13.07. 7:30 1026 - 0,2
Mo, 13.07. 7:00 1026 - 0,3
Mo, 13.07. 6:30 1026 - 0,4
Mo, 13.07. 6:00 1026 - 0,5
Ortszeit Schneehöhe (cm)
Mo, 13.07. 8:00 -
Mo, 13.07. 2:00 -
So, 12.07. 20:00 -
So, 12.07. 14:00 -
So, 12.07. 8:00 -
So, 12.07. 2:00 -
Sa, 11.07. 20:00 -
Sa, 11.07. 14:00 -
Ortszeit Schneehöhe (cm)
Mo, 13.07. 9:00 -
Mo, 13.07. 8:50 -
Mo, 13.07. 8:40 -
Mo, 13.07. 8:30 -
Mo, 13.07. 8:20 -
Mo, 13.07. 8:10 -
Mo, 13.07. 8:00 -
Mo, 13.07. 7:30 -
Mo, 13.07. 7:00 -
Mo, 13.07. 6:30 -
Mo, 13.07. 6:00 -
Link zu dieser Seite / Seite empfehlen

Das Wetter in ...